When you browse on this site, cookies collect data to enhance your experience and personalize the content and advertising you see.
Visit our Privacy Policy to learn more. By continuing to use the site, you agree to this use of cookies and data.
  • In Slovakia
  • List of Countries
  • For 7 days
  • Water Temperature
  • Weather Map
  • Weather Widgets
  • user-avatar
    Login

    Hourly Weather San Luis

    Today, 17 November, Sunday

    Time Temperature Precipitation Wind Pressure Humidity
    00:00 +26°C° 0.1 mm 6 mps 694 mmHg 57%
    01:00 +26°C° 0.1 mm 6 mps 694 mmHg 58%
    02:00 +26°C° 0.1 mm 7 mps 694 mmHg 58%
    03:00 +24°C° 0 mm 7 mps 694 mmHg 58%
    04:00 +24°C° 0 mm 7 mps 694 mmHg 57%
    05:00 +24°C° 0 mm 8 mps 694 mmHg 57%
    06:00 +26°C° 0 mm 8 mps 695 mmHg 50%
    07:00 +28°C° 0 mm 8 mps 696 mmHg 43%
    08:00 +29°C° 0 mm 9 mps 696 mmHg 36%
    09:00 +32°C° 0 mm 8 mps 696 mmHg 34%
    10:00 +33°C° 0 mm 7 mps 696 mmHg 31%
    11:00 +34°C° 0 mm 6 mps 696 mmHg 29%
    12:00 +35°C° 0 mm 6 mps 696 mmHg 28%
    13:00 +36°C° 0 mm 5 mps 695 mmHg 26%
    14:00 +36°C° 0 mm 5 mps 695 mmHg 25%
    15:00 +36°C° 0 mm 5 mps 694 mmHg 24%
    16:00 +36°C° 0 mm 4 mps 694 mmHg 24%
    17:00 +36°C° 0 mm 4 mps 694 mmHg 23%
    18:00 +34°C° 0 mm 3 mps 694 mmHg 27%
    19:00 +31°C° 0 mm 2 mps 694 mmHg 31%
    20:00 +29°C° 0 mm 1 mps 694 mmHg 35%
    21:00 +27°C° 0 mm 4 mps 695 mmHg 45%
    22:00 +26°C° 0 mm 7 mps 695 mmHg 55%
    23:00 +23°C° 0 mm 10 mps 696 mmHg 65%

    Tomorrow, 18 November, Monday

    Time Temperature Precipitation Wind Pressure Humidity
    00:00 +22°C° 0 mm 9 mps 696 mmHg 68%
    01:00 +21°C° 0 mm 8 mps 696 mmHg 70%
    02:00 +21°C° 0 mm 7 mps 696 mmHg 72%
    03:00 +20°C° 0 mm 6 mps 696 mmHg 73%
    04:00 +20°C° 0 mm 6 mps 697 mmHg 75%
    05:00 +20°C° 0 mm 5 mps 697 mmHg 76%
    06:00 +21°C° 0 mm 5 mps 698 mmHg 71%
    07:00 +22°C° 0 mm 5 mps 699 mmHg 67%
    08:00 +25°C° 0 mm 5 mps 699 mmHg 62%
    09:00 +24°C° 0.1 mm 6 mps 700 mmHg 60%
    10:00 +26°C° 0.1 mm 6 mps 700 mmHg 57%
    11:00 +27°C° 0.1 mm 6 mps 700 mmHg 55%
    12:00 +28°C° 0.1 mm 7 mps 700 mmHg 53%
    13:00 +28°C° 0.1 mm 7 mps 699 mmHg 51%
    14:00 +29°C° 0.1 mm 8 mps 699 mmHg 50%
    15:00 +29°C° 0 mm 8 mps 698 mmHg 50%
    16:00 +29°C° 0 mm 8 mps 698 mmHg 49%
    17:00 +29°C° 0 mm 9 mps 697 mmHg 49%
    18:00 +28°C° 0.1 mm 9 mps 698 mmHg 54%
    19:00 +26°C° 0.1 mm 8 mps 698 mmHg 59%
    20:00 +24°C° 0.1 mm 8 mps 698 mmHg 64%
    21:00 +24°C° 0.3 mm 8 mps 698 mmHg 65%
    22:00 +24°C° 0.3 mm 8 mps 699 mmHg 67%
    23:00 +23°C° 0.3 mm 8 mps 699 mmHg 68%

    Day after tomorrow, 19 November, Tuesday

    Time Temperature Precipitation Wind Pressure Humidity
    00:00 +23°C° 0 mm 7 mps 698 mmHg 69%
    01:00 +22°C° 0 mm 7 mps 698 mmHg 70%
    02:00 +22°C° 0 mm 6 mps 697 mmHg 71%
    03:00 +22°C° 0 mm 5 mps 697 mmHg 69%
    04:00 +22°C° 0 mm 4 mps 697 mmHg 67%
    05:00 +22°C° 0 mm 4 mps 697 mmHg 65%
    06:00 +25°C° 0 mm 5 mps 698 mmHg 55%
    07:00 +27°C° 0 mm 6 mps 698 mmHg 46%
    08:00 +30°C° 0 mm 7 mps 699 mmHg 36%
    09:00 +32°C° 0 mm 8 mps 698 mmHg 32%
    10:00 +34°C° 0 mm 8 mps 698 mmHg 27%
    11:00 +37°C° 0 mm 9 mps 698 mmHg 23%
    12:00 +37°C° 0 mm 9 mps 697 mmHg 22%
    13:00 +38°C° 0 mm 9 mps 697 mmHg 22%
    14:00 +39°C° 0 mm 9 mps 696 mmHg 21%
    15:00 +39°C° 0 mm 8 mps 695 mmHg 22%
    16:00 +39°C° 0 mm 8 mps 695 mmHg 22%
    17:00 +39°C° 0 mm 8 mps 694 mmHg 22%
    18:00 +36°C° 0 mm 6 mps 694 mmHg 25%
    19:00 +34°C° 0 mm 5 mps 694 mmHg 28%
    20:00 +32°C° 0 mm 4 mps 694 mmHg 31%
    21:00 +30°C° 0 mm 4 mps 695 mmHg 32%
    22:00 +30°C° 0 mm 5 mps 695 mmHg 33%
    23:00 +29°C° 0 mm 6 mps 695 mmHg 34%

    20 November, Wednesday

    Time Temperature Precipitation Wind Pressure Humidity
    00:00 +29°C° 0 mm 6 mps 695 mmHg 35%
    01:00 +29°C° 0 mm 6 mps 695 mmHg 37%
    02:00 +29°C° 0 mm 6 mps 695 mmHg 38%
    03:00 +28°C° 0 mm 6 mps 695 mmHg 40%
    04:00 +28°C° 0 mm 6 mps 695 mmHg 41%
    05:00 +27°C° 0 mm 5 mps 695 mmHg 43%
    06:00 +27°C° 0.5 mm 5 mps 696 mmHg 44%
    07:00 +28°C° 0.5 mm 4 mps 696 mmHg 45%
    08:00 +28°C° 0.5 mm 3 mps 696 mmHg 46%
    09:00 +30°C° 0.2 mm 3 mps 696 mmHg 42%
    10:00 +31°C° 0.2 mm 3 mps 696 mmHg 39%
    11:00 +32°C° 0.2 mm 2 mps 696 mmHg 35%
    12:00 +34°C° 0 mm 3 mps 696 mmHg 33%
    13:00 +35°C° 0 mm 3 mps 695 mmHg 31%
    14:00 +36°C° 0 mm 4 mps 694 mmHg 29%
    15:00 +35°C° 0 mm 5 mps 694 mmHg 33%
    16:00 +34°C° 0 mm 6 mps 693 mmHg 36%
    17:00 +33°C° 0 mm 7 mps 692 mmHg 40%
    18:00 +32°C° 0.1 mm 6 mps 693 mmHg 44%
    19:00 +30°C° 0.1 mm 6 mps 693 mmHg 48%
    20:00 +28°C° 0.1 mm 5 mps 693 mmHg 51%
    21:00 +27°C° 0.5 mm 5 mps 693 mmHg 55%
    22:00 +26°C° 0.5 mm 4 mps 693 mmHg 59%
    23:00 +25°C° 0.5 mm 4 mps 693 mmHg 63%

    21 November, Thursday

    Time Temperature Precipitation Wind Pressure Humidity
    00:00 +25°C° 0.7 mm 4 mps 693 mmHg 67%
    01:00 +23°C° 0.7 mm 5 mps 693 mmHg 72%
    02:00 +22°C° 0.7 mm 5 mps 693 mmHg 76%
    03:00 +22°C° 0.4 mm 5 mps 693 mmHg 77%
    04:00 +22°C° 0.4 mm 5 mps 694 mmHg 78%
    05:00 +21°C° 0.4 mm 6 mps 694 mmHg 79%
    06:00 +23°C° 0.2 mm 6 mps 695 mmHg 74%
    07:00 +24°C° 0.2 mm 6 mps 696 mmHg 68%
    08:00 +26°C° 0.2 mm 7 mps 697 mmHg 62%
    09:00 +26°C° 0.1 mm 8 mps 697 mmHg 62%
    10:00 +24°C° 0.1 mm 9 mps 697 mmHg 63%
    11:00 +24°C° 0.1 mm 10 mps 697 mmHg 63%
    12:00 +24°C° 0.6 mm 10 mps 697 mmHg 63%
    13:00 +26°C° 0.6 mm 10 mps 697 mmHg 62%
    14:00 +26°C° 0.6 mm 9 mps 696 mmHg 62%
    15:00 +24°C° 0.6 mm 9 mps 696 mmHg 61%
    16:00 +23°C° 0.6 mm 9 mps 696 mmHg 60%
    17:00 +21°C° 0.6 mm 10 mps 695 mmHg 58%
    18:00 +21°C° 0.3 mm 9 mps 696 mmHg 62%
    19:00 +19°C° 0.3 mm 9 mps 696 mmHg 65%
    20:00 +18°C° 0.3 mm 8 mps 696 mmHg 68%
    21:00 +20°C° 0 mm 8 mps 697 mmHg 71%
    22:00 +20°C° 0 mm 8 mps 697 mmHg 74%
    23:00 +20°C° 0 mm 7 mps 697 mmHg 77%

    22 November, Friday

    Time Temperature Precipitation Wind Pressure Humidity
    00:00 +20°C° 0 mm 7 mps 697 mmHg 78%
    01:00 +20°C° 0 mm 7 mps 697 mmHg 80%
    02:00 +20°C° 0 mm 7 mps 697 mmHg 81%
    03:00 +18°C° 0 mm 7 mps 697 mmHg 83%
    04:00 +19°C° 0 mm 6 mps 697 mmHg 85%
    05:00 +19°C° 0 mm 6 mps 697 mmHg 87%
    06:00 +20°C° 0 mm 6 mps 697 mmHg 84%
    07:00 +20°C° 0 mm 6 mps 698 mmHg 81%
    08:00 +21°C° 0 mm 6 mps 698 mmHg 78%
    09:00 +23°C° 0.1 mm 6 mps 698 mmHg 71%
    10:00 +25°C° 0.1 mm 5 mps 698 mmHg 65%
    11:00 +27°C° 0.1 mm 5 mps 698 mmHg 59%
    12:00 +28°C° 0.6 mm 4 mps 697 mmHg 57%
    13:00 +28°C° 0.6 mm 4 mps 697 mmHg 54%
    14:00 +29°C° 0.6 mm 4 mps 696 mmHg 52%
    15:00 +29°C° 0.1 mm 4 mps 696 mmHg 51%
    16:00 +29°C° 0.1 mm 5 mps 695 mmHg 50%
    17:00 +29°C° 0.1 mm 5 mps 695 mmHg 49%
    18:00 +28°C° 0.1 mm 6 mps 695 mmHg 55%
    19:00 +26°C° 0.1 mm 6 mps 695 mmHg 61%
    20:00 +24°C° 0.1 mm 7 mps 695 mmHg 67%
    21:00 +23°C° 0 mm 5 mps 695 mmHg 68%
    22:00 +23°C° 0 mm 4 mps 695 mmHg 69%
    23:00 +24°C° 0 mm 3 mps 695 mmHg 69%
    Show more